User: anonymous   Login
Location: Theydon Bois
(51.6750°N, 0.1050°E)
Time: 17:15:34
(UTC+00:00)
Language:

Cosmos 2112 Rocket - Orbit

View from above orbital plane
View from above orbital plane
View from above satellite
View from above satellite

Ground track
Ground track

The orbit data is extracted from the following two-line orbital elements,

1 21015U 90111B   18016.53046383  .00000018  00000-0  15395-4 0  9995
2 21015  74.0513 105.5937 0022720 315.9960 140.5418 14.35922069516744
Epoch (UTC): 16 January 2018 12:43:52
Eccentricity: 0.0022720
inclination: 74.0513°
perigee height: 756 km
apogee height: 788 km
right ascension of ascending node: 105.5937°
argument of perigee: 315.9960°
revolutions per day: 14.35922069
mean anomaly at epoch: 140.5418°
orbit number at epoch: 51674

The dashed part of the orbit path shows where the satellite is in the earth's shadow,  

DLR